OpenBCM V1.08-5-g2f4a (Linux)

Packet Radio Mailbox

IZ3LSV

[San Dona' di P. JN]

 Login: GUEST





  
I0OJJ  > KEPS     18.08.25 02:46l 316 Lines 15020 Bytes #179 (0) @ AMSAT
BID : ORB25230.1
Subj: 2Line Orbital Elements 25230.AMSAT
Path: IZ3LSV<DB0ERF<DK0WUE<PI8ZTM<IR0AAB<I0OJJ
Sent: 250818/0025z @:I0OJJ.ITA.EU [Rome] obcm1.08-10-g596e
From: I0OJJ @ I0OJJ.ITA.EU (Gustavo)
To:   KEPS @ AMSAT
X-Info: This message was generated automatically


QST de KM1P

AMSAT Orbital Elements for Amateur Satellites in TLE Format
From Orbital Analysis Auxilliary Summer Office
New England Sci-Tech STEM Education Center
Narragansett RI August 18, 2025
To all radio amateurs


These element sets describe the orbits of various satellites 
in use by the amateur radio community. For details see:
www.amsat.org/keplerian-elements-formats/

A daily update of element sets is available at:
www.amsat.org/tle/daily-bulletin.txt
or without bulletin text:
www.amsat.org/tle/dailytle.txt


AO-07
1 07530U 74089B   25229.60424902 -.00000036  00000-0  62974-4 0  9992
2 07530 101.9964 234.6083 0012209 352.4657 126.3306 12.53690821322475
UO-11
1 14781U 84021B   25229.39280010  .00001358  00000-0  14802-3 0  9994
2 14781  97.7605 194.4284 0009324 106.0369 254.1876 14.89558940211888
AO-27
1 22825U 93061C   25229.44875635  .00000068  00000-0  43182-4 0  9996
2 22825  98.7317 291.3313 0007262 271.1940  88.8410 14.30818309663561
FO-29
1 24278U 96046B   25229.58657079 -.00000053  00000-0 -19088-4 0  9995
2 24278  98.5650 114.3722 0350181 163.6490 197.6294 13.53251753432108
NOAA-15
1 25338U 98030A   25229.80683252  .00000145  00000-0  76941-4 0  9996
2 25338  98.5335 253.2652 0010852 151.0433 209.1352 14.27012631418275
GO-32
1 25397U 98043D   25229.53516014  .00000073  00000-0  51543-4 0  9997
2 25397  98.9767 210.1131 0001884  45.6334 314.4998 14.24329906408100
ISS
1 25544U 98067A   25229.82509125  .00009694  00000-0  17767-3 0  9991
2 25544  51.6354   1.5604 0003462 232.3943 127.6732 15.49989447524721
NO-44
1 26931U 01043C   25229.59317649  .00000104  00000-0  69811-4 0  9997
2 26931  67.0519 309.4018 0006736 276.2389  83.7946 14.31763361246986
SO-50
1 27607U 02058C   25229.59826963  .00000997  00000-0  14036-3 0  9997
2 27607  64.5545 347.4602 0063602 319.2688  40.3670 14.81790959219457
CO-55
1 27844U 03031E   25229.53808114  .00000285  00000-0  14301-3 0  9999
2 27844  98.6778 236.9270 0009449 355.1226   4.9859 14.24042167148459
CO-57
1 27848U 03031J   25229.58915113  .00000239  00000-0  12450-3 0  9998
2 27848  98.6807 236.9307 0009752  12.3620 347.7796 14.23370412148188
RS-22
1 27939U 03042A   25229.86372650  .00001058  00000-0  17489-3 0  9992
2 27939  98.3343  41.0183 0012076 145.5955 350.9227 14.72497682171028
CO-58
1 28895U 05043F   25229.35104712  .00001537  00000-0  25728-3 0  9990
2 28895  98.2587  14.6025 0015678  89.5771 270.7231 14.71218406 57058
CO-65
1 32785U 08021C   25229.56512083  .00003780  00000-0  27046-3 0  9996
2 32785  97.7904 201.2877 0009016 351.7657   8.3419 15.05034748939452
CO-66
1 32791U 08021J   25229.85334970  .00010481  00000-0  48687-3 0  9992
2 32791  97.7325 211.5284 0001275 307.6177  52.4941 15.20196240941094
RS-30
1 32953U 08025A   25229.85531803  .00000035  00000-0  17846-3 0  9997
2 32953  82.5052 184.1003 0017879 254.4508 105.4599 12.43167252782130
NOAA-19
1 33591U 09005A   25229.79164848  .00000035  00000-0  42544-4 0  9993
2 33591  98.9927 294.8701 0014134 164.3201 195.8411 14.13396590851888
SRMSAT
1 37841U 11058D   25229.88737231  .00000394  00000-0  70078-4 0  9999
2 37841  19.9721  95.1314 0011805 107.6141 356.1246 14.11453600715131
ZACUBE-1
1 39417U 13066B   25229.77083643  .00004183  00000-0  35991-3 0  9994
2 39417  97.7852 186.4605 0043746 177.8351 182.3068 14.97199074635261
Delfi-N3xt
1 39428U 13066N   25229.52131461  .00005309  00000-0  53219-3 0  9995
2 39428  97.8296 146.4226 0085065 132.4673 228.3776 14.89072418629336
GOMX-1
1 39430U 13066Q   25229.81729654  .00001389  00000-0  22149-3 0  9999
2 39430  97.6770  84.2182 0131343 331.4294  27.9756 14.67880563625561
LO-74
1 39440U 13066AA  25229.77348804  .00003424  00000-0  34557-3 0  9997
2 39440  97.8511 173.8838 0060139 312.8190  46.7981 14.90420111632946
AO-73
1 39444U 13066AE  25229.86443507  .00004881  00000-0  35944-3 0  9996
2 39444  97.7843 192.0989 0042290 150.2883 210.0756 15.03105071634586
DTUSAT-2
1 40030U 14033W   25229.86706647  .00005851  00000-0  37346-3 0  9997
2 40030  98.0613 205.0965 0009217 173.5541 186.5806 15.09067087607356
EO-80
1 40032U 14033Y   25229.88382116  .00006672  00000-0  42423-3 0  9996
2 40032  98.0487 204.6721 0010105 121.2716 238.9503 15.09139446607348
LILACSAT-2
1 40908U 15049K   25229.82787597  .00010364  00000-0  25862-3 0  9993
2 40908  97.5050 251.9074 0006873 268.8620  91.1839 15.40362216548887
IO-86
1 40931U 15052B   25151.18580175  .00001241  00000-0  78118-4 0  9996
2 40931   6.0006  24.0987 0012733 338.8432  21.1169 14.78805930523159
Horyu-4
1 41340U 16012D   25229.51931589  .00021926  00000-0  53388-3 0  9993
2 41340  30.9974  27.4090 0007503  57.8811 302.2563 15.39657998523411
Lapan A3
1 41603U 16040E   25229.88916518  .00003149  00000-0  10977-3 0  9995
2 41603  97.1400 231.8025 0011701  31.4408 328.7530 15.30288490508380
CAS-2T
1 41847U 16066G   25229.78633712  .00000582  00000-0  92545-4 0  9994
2 41847  98.4163 303.6368 0344867 329.2897  28.8504 14.43656119461006
CAS-4B
1 42759U 17034B   25229.51956182  .00111523  00000-0  74734-3 0  9990
2 42759  43.0031 268.1432 0020991  53.5283 306.7517 15.73862460453422
CAS-4A
1 42761U 17034D   25229.79778312  .00109767  00000-0  66689-3 0  9997
2 42761  43.0065 262.6288 0021714  60.7924 299.5114 15.76082350453502
TechnoSat
1 42829U 17042E   25229.73381401  .00003121  00000-0  24095-3 0  9996
2 42829  97.3988  35.1554 0018232  50.1104 310.1721 15.02127238441107
AO-91
1 43017U 17073E   25229.59521886  .00006318  00000-0  32005-3 0  9998
2 43017  97.5144  98.6320 0168198 291.4903  66.8463 15.05796902419591
S-Net D
1 43186U 18014G   25229.45320495  .00003999  00000-0  23388-3 0  9995
2 43186  97.5541 131.6562 0008744   1.2262 358.8988 15.12409172412788
S-Net B
1 43187U 18014H   25229.45950881  .00004181  00000-0  24445-3 0  9993
2 43187  97.5548 131.6376 0009251 355.5119   4.6027 15.12389510412782
S-Net A
1 43188U 18014J   25229.45335031  .00004032  00000-0  23574-3 0  9995
2 43188  97.5554 131.7907 0009176 356.3693   3.7469 15.12415068412781
S-Net C
1 43189U 18014K   25229.72672933  .00004278  00000-0  24996-3 0  9992
2 43189  97.5571 132.0874 0010354 346.0641  14.0302 15.12388779411370
Ten-Koh
1 43677U 18084G   25229.73928485  .00001996  00000-0  16202-3 0  9993
2 43677  98.0840  44.7341 0007972  45.6557 314.5318 15.00855542370615
PO-101
1 43678U 18084H   25229.83567162  .00002131  00000-0  18296-3 0  9993
2 43678  98.1063  48.6287 0008984  64.6897 295.5254 14.98596367370753
QO-100
1 43700U 18090A   25229.75519731  .00000135  00000-0  00000+0 0  9998
2 43700   0.0169 100.0482 0001144  77.1895  86.8038  1.00273194 24875
MinXSS-2
1 43758U 18099A   25229.15343328  .00012877  00000-0  47876-3 0  9993
2 43758  97.4968 295.4813 0009913 271.6334  88.3769 15.27615411367439
AO-95
1 43770U 18099N   25229.41250320  .00006709  00000-0  32985-3 0  9997
2 43770  97.4865 286.7659 0009388 340.7076  19.3801 15.18321173366997
SNUSat 2
1 43782U 18099AA  25229.42757199  .00006154  00000-0  32826-3 0  9995
2 43782  97.4549 282.9620 0010209 274.5482  85.4584 15.15477699366921
SnugLite
1 43784U 18099AC  25229.09811426  .00007948  00000-0  38678-3 0  9997
2 43784  97.4359 282.3467 0001813 270.0449  90.0578 15.18650580367033
ITASat 1
1 43786U 18099AE  25229.71031747  .00004899  00000-0  27527-3 0  9991
2 43786  97.4515 282.5403 0013010 332.8189  27.2360 15.13690194366918
EAGLET 1
1 43790U 18099AJ  25229.56653367  .00003883  00000-0  24550-3 0  9992
2 43790  97.4713 282.1188 0010747 317.3131  42.7262 15.09556778366476
ESEO
1 43792U 18099AL  25229.71964932  .00001384  00000-0  10757-3 0  9992
2 43792  97.4442 274.5947 0009908 289.9073  70.1085 15.02842414366208
JO-97
1 43803U 18099AX  25229.44269569  .00009416  00000-0  41272-3 0  9999
2 43803  97.4610 287.9459 0005872 258.4749 101.5828 15.22197194367240
Suomi 100
1 43804U 18099AY  25229.70433435  .00007918  00000-0  37533-3 0  9994
2 43804  97.4677 287.2951 0010586 264.5068  95.4959 15.19521088367193
ISAT
1 43879U 18111D   25229.70826333  .00018699  00000-0  60022-3 0  9991
2 43879  97.5888 145.7234 0006140 328.6369  31.4505 15.32345080362259
UWE-4
1 43880U 18111E   25229.48920114  .00013455  00000-0  49842-3 0  9992
2 43880  97.5835 143.4682 0010100 339.6831  20.4004 15.27725748364141
Sparrow
1 43881U 18111F   25229.50092965  .00020157  00000-0  61922-3 0  9990
2 43881  97.6045 148.6687 0006302  20.1711 339.9779 15.33730322364346
Prox-1
1 44339U 19036A   25229.56670647  .00009312  00000-0  11356-2 0  9996
2 44339  23.9979 328.2290 0007603 132.2254 227.8890 14.81199182328255
Taurus 1
1 44530U 19059C   25229.85825293  .00005482  00000-0  99646-3 0  9998
2 44530  98.6133  12.5996 0009703 175.5870 184.5420 14.66557204314093
Duchifat 3
1 44854U 19089C   25229.51577517  .00048657  00000-0  76487-3 0  9995
2 44854  36.9401 275.0696 0005694 164.3394 195.7541 15.52599358313718
TO-108
1 44881U 19093C   25229.86460976  .00000781  00000-0  96033-4 0  9994
2 44881  97.7887 304.0577 0013879  10.2630 349.8866 14.85723288306369
FloripaSat 1
1 44885U 19093G   25229.78050156  .00004336  00000-0  36157-3 0  9994
2 44885  97.8133 317.5459 0008813 336.9006  23.1820 14.99104230307114
RS-44
1 44909U 19096E   25229.58803282  .00000026  00000-0  53233-4 0  9995
2 44909  82.5238 181.4342 0218198 133.9983 227.9337 12.79742565263512
UPMSat 2
1 46276U 20061E   25229.49280291  .00112971  00000-0  60796-3 0  9991
2 46276  97.2360 306.6708 0001795 206.0486 154.0692 15.79889197276301
SALSAT
1 46495U 20068K   25229.85839715  .00006002  00000-0  25363-3 0  9990
2 46495  97.8662 211.1502 0009128 283.3493  76.6724 15.23614280269070
